Weather History for Cozumel, Mexico

Change the Weather History Date:

Wednesday, October 6, 2010

  Actual Average Record
Temperature  
Mean Temperature 74 °F -  
Max Temperature 80 °F 87 °F 93 °F (1998)
Min Temperature 68 °F 76 °F 68 °F (2010)
Cooling Degree Days 9    
Growing Degree Days 24 (Base 50)    
Moisture  
Dew Point 65 °F    
Average Humidity 71    
Maximum Humidity 88    
Minimum Humidity 54    
Precipitation  
Precipitation 0.00 in - - ()
Sea Level Pressure  
Sea Level Pressure 29.98 in    
Wind  
Wind Speed 12 mph ()    
Max Wind Speed 21 mph    
Max Gust Speed 23 mph    
Visibility 8.6 miles    
Events      
Averages and records for this station are not official NWS values.
T = Trace of Precipitation, MM = Missing Value Source: Averaged Metar Reports

Daily Weather History Graph

Daily Weather History Graph

Search for Another Location

Airport:

Trip Planner

Search our weather history database for the weather conditions in past years. The results will help you decide how hot, cold, wet, or windy it might be!

Date:

Astronomy

Oct. 06, 2010 Rise Set
Actual Time 6:40 AM CDT 6:31 PM CDT
Civil Twilight 6:17 AM CDT 6:53 PM CDT
Nautical Twilight 5:52 AM CDT 7:18 PM CDT
Astronomical Twilight 5:26 AM CDT 7:44 PM CDT
Moon 5:20 AM CDT (10/6) 5:34 PM CDT (10/6)
Length of Visible Light 12h 35m
Length of Day
11h 51m
Waning Crescent, 2% of the Moon is Illuminated
Oct 6
Waning Crescent
Oct 7
New
Oct 14
First Quarter
Oct 22
Full
Oct 30
Last Quarter

Hourly Weather History & Observations

Time (CDT) Temp. Heat Index Dew Point Humidity Pressure Visibility Wind Dir Wind Speed Gust Speed Precip Events Conditions
12:40 AM 73.4 °F - 66.2 °F 78% 29.98 in 8.0 mi North 13.8 mph - N/A   Partly Cloudy
1:41 AM 73.4 °F - 66.2 °F 78% 30.01 in 8.0 mi North 11.5 mph - N/A   Partly Cloudy
2:40 AM 71.6 °F - 66.2 °F 83% 29.95 in 8.0 mi North 13.8 mph - N/A   Partly Cloudy
3:41 AM 71.6 °F - 66.2 °F 83% 29.97 in 8.0 mi North 13.8 mph - N/A   Partly Cloudy
4:41 AM 69.8 °F - 66.2 °F 88% 29.97 in 8.0 mi North 13.8 mph - N/A   Partly Cloudy
5:45 AM 68.0 °F - 64.4 °F 88% 29.97 in 8.0 mi North 13.8 mph - N/A   Scattered Clouds
6:46 AM 71.6 °F - 64.4 °F 78% 29.95 in 8.0 mi North 13.8 mph - N/A   Partly Cloudy
7:45 AM 73.4 °F - 64.4 °F 73% 29.99 in 8.0 mi North 11.5 mph 23.0 mph N/A   Partly Cloudy
8:48 AM 75.2 °F - 62.6 °F 65% 30.01 in 8.0 mi North 11.5 mph 23.0 mph N/A   Partly Cloudy
9:42 AM 77.0 °F - 64.4 °F 65% 30.06 in 10.0 mi North 17.3 mph - N/A   Scattered Clouds
10:41 AM 77.0 °F - 64.4 °F 65% 30.03 in 10.0 mi North 20.7 mph - N/A   Scattered Clouds
11:44 AM 78.8 °F - 64.4 °F 61% 30.03 in 10.0 mi North 17.3 mph - N/A   Scattered Clouds
12:46 PM 80.6 °F 81.8 °F 62.6 °F 54% 29.97 in 10.0 mi North 11.5 mph 23.0 mph N/A   Scattered Clouds
1:43 PM 80.6 °F 81.8 °F 62.6 °F 54% 29.98 in 10.0 mi North 11.5 mph - N/A   Mostly Cloudy
2:40 PM 80.6 °F 81.8 °F 62.6 °F 54% 29.96 in 10.0 mi North 11.5 mph - N/A   Mostly Cloudy
3:40 PM 80.6 °F 82.3 °F 64.4 °F 58% 29.98 in 10.0 mi NW 15.0 mph - N/A   Scattered Clouds
4:40 PM 80.6 °F 82.3 °F 64.4 °F 58% 29.94 in 10.0 mi NNW 12.7 mph - N/A   Mostly Cloudy
5:46 PM 77.0 °F - 64.4 °F 65% 29.95 in 10.0 mi NNW 15.0 mph - N/A   Mostly Cloudy
6:42 PM 75.2 °F - 64.4 °F 69% 29.94 in 8.0 mi NNW 17.3 mph - N/A   Mostly Cloudy
7:41 PM 73.4 °F - 64.4 °F 73% 29.97 in 8.0 mi NNW 17.3 mph - N/A   Mostly Cloudy
8:40 PM 73.4 °F - 64.4 °F 73% 29.99 in 8.0 mi NW 10.4 mph 21.9 mph N/A   Mostly Cloudy
9:42 PM 73.4 °F - 66.2 °F 78% 30.02 in 7.0 mi NW 17.3 mph - N/A   Scattered Clouds
10:43 PM 73.4 °F - 66.2 °F 78% 29.99 in 7.0 mi NW 10.4 mph 21.9 mph N/A   Scattered Clouds
11:41 PM 73.4 °F - 68.0 °F 83% 29.98 in 7.0 mi NW 11.5 mph 23.0 mph N/A   Scattered Clouds